Time,TemperatureF,DewpointF,PressureIn,WindDirection,WindDirectionDegrees,WindSpeedMPH,WindSpeedGustMPH,Humidity,HourlyPrecipIn,Conditions,Clouds,dailyrainin,SoftwareType,DateUTC
2013-04-16 00:03:00,57.0,45.0,29.93,SE,126,4.0,-999.0,63,-99.99,,,-99.99,,2013-04-16 04:03:00,
2013-04-16 00:13:00,57.0,45.0,29.93,SE,126,4.0,-999.0,63,-99.99,,,-99.99,,2013-04-16 04:13:00,
2013-04-16 00:23:00,57.0,45.0,29.92,South,178,4.0,-999.0,63,-99.99,,,-99.99,,2013-04-16 04:23:00,
2013-04-16 00:33:00,57.0,45.0,29.92,SW,216,4.0,-999.0,63,-99.99,,,-99.99,,2013-04-16 04:33:00,
2013-04-16 00:42:00,57.0,45.0,29.92,SW,216,4.0,-999.0,63,-99.99,,,-99.99,,2013-04-16 04:42:00,
2013-04-16 00:53:00,57.0,45.0,29.92,East,100,4.0,-999.0,64,-99.99,,,-99.99,,2013-04-16 04:53:00,
2013-04-16 01:02:00,57.0,45.0,29.92,SSW,206,3.0,-999.0,64,-99.99,,,-99.99,,2013-04-16 05:02:00,
2013-04-16 01:12:00,57.0,45.0,29.92,SSW,206,3.0,-999.0,64,-99.99,,,-99.99,,2013-04-16 05:12:00,
2013-04-16 01:22:00,56.0,44.0,29.91,ENE,68,4.0,-999.0,65,-99.99,,,-99.99,,2013-04-16 05:22:00,
2013-04-16 01:32:00,56.0,44.0,29.91,South,178,3.0,-999.0,65,-99.99,,,-99.99,,2013-04-16 05:32:00,
2013-04-16 01:42:00,56.0,44.0,29.91,South,178,3.0,-999.0,65,-99.99,,,-99.99,,2013-04-16 05:42:00,
2013-04-16 01:52:00,56.0,45.0,29.91,North,0,3.0,-999.0,67,-99.99,,,-99.99,,2013-04-16 05:52:00,
2013-04-16 02:02:00,56.0,45.0,29.91,South,169,4.0,-999.0,67,-99.99,,,-99.99,,2013-04-16 06:02:00,
2013-04-16 02:12:00,56.0,45.0,29.91,South,169,4.0,-999.0,67,-99.99,,,-99.99,,2013-04-16 06:12:00,
2013-04-16 02:22:00,56.0,45.0,29.91,SSW,206,3.0,-999.0,67,-99.99,,,-99.99,,2013-04-16 06:22:00,
2013-04-16 02:32:00,56.0,46.0,29.91,SSW,200,4.0,-999.0,68,-99.99,,,-99.99,,2013-04-16 06:32:00,
2013-04-16 02:42:00,56.0,46.0,29.91,SSW,200,4.0,-999.0,68,-99.99,,,-99.99,,2013-04-16 06:42:00,
2013-04-16 02:52:00,56.0,46.0,29.91,SW,229,5.0,-999.0,68,-99.99,,,-99.99,,2013-04-16 06:52:00,
2013-04-16 03:02:00,55.0,45.0,29.91,SSE,165,2.0,-999.0,70,-99.99,,,-99.99,,2013-04-16 07:02:00,
2013-04-16 03:12:00,55.0,45.0,29.91,SSE,165,2.0,-999.0,70,-99.99,,,-99.99,,2013-04-16 07:12:00,
2013-04-16 03:22:00,55.0,45.0,29.91,ESE,102,4.0,-999.0,70,-99.99,,,-99.99,,2013-04-16 07:22:00,
2013-04-16 03:32:00,55.0,45.0,29.90,SE,128,4.0,-999.0,70,-99.99,,,-99.99,,2013-04-16 07:32:00,
2013-04-16 03:42:00,55.0,45.0,29.90,SE,128,4.0,-999.0,70,-99.99,,,-99.99,,2013-04-16 07:42:00,
2013-04-16 03:53:00,55.0,45.0,29.90,SE,127,4.0,-999.0,70,-99.99,,,-99.99,,2013-04-16 07:53:00,
2013-04-16 04:02:00,55.0,46.0,29.90,ESE,109,5.0,-999.0,71,-99.99,,,-99.99,,2013-04-16 08:02:00,
2013-04-16 04:12:00,55.0,46.0,29.90,ESE,109,5.0,-999.0,71,-99.99,,,-99.99,,2013-04-16 08:12:00,
2013-04-16 04:22:00,55.0,46.0,29.89,NNE,27,5.0,-999.0,71,-99.99,,,-99.99,,2013-04-16 08:22:00,
2013-04-16 04:32:00,55.0,46.0,29.88,South,174,5.0,-999.0,72,-99.99,,,-99.99,,2013-04-16 08:32:00,
2013-04-16 04:42:00,55.0,46.0,29.88,South,174,5.0,-999.0,72,-99.99,,,-99.99,,2013-04-16 08:42:00,
2013-04-16 04:52:00,55.0,47.0,29.89,SSE,161,5.0,-999.0,73,-99.99,,,-99.99,,2013-04-16 08:52:00,
2013-04-16 05:02:00,55.0,47.0,29.89,SSE,148,3.0,-999.0,73,-99.99,,,-99.99,,2013-04-16 09:02:00,
2013-04-16 05:12:00,55.0,47.0,29.89,SSE,148,3.0,-999.0,73,-99.99,,,-99.99,,2013-04-16 09:12:00,
2013-04-16 05:22:00,55.0,47.0,29.90,SSE,164,3.0,-999.0,74,-99.99,,,-99.99,,2013-04-16 09:22:00,
2013-04-16 05:33:00,55.0,47.0,29.90,SE,126,4.0,-999.0,73,-99.99,,,-99.99,,2013-04-16 09:33:00,
2013-04-16 05:43:00,55.0,47.0,29.90,SE,126,4.0,-999.0,73,-99.99,,,-99.99,,2013-04-16 09:43:00,
2013-04-16 05:53:00,55.0,47.0,29.91,SSE,160,3.0,-999.0,73,-99.99,,,-99.99,,2013-04-16 09:53:00,
2013-04-16 06:03:00,55.0,47.0,29.91,SSE,154,4.0,-999.0,73,-99.99,,,-99.99,,2013-04-16 10:03:00,
2013-04-16 06:13:00,55.0,47.0,29.91,SSE,154,4.0,-999.0,73,-99.99,,,-99.99,,2013-04-16 10:13:00,
2013-04-16 06:23:00,55.0,47.0,29.91,ESE,109,4.0,-999.0,73,-99.99,,,-99.99,,2013-04-16 10:23:00,
2013-04-16 06:33:00,55.0,47.0,29.91,SE,136,4.0,-999.0,73,-99.99,,,-99.99,,2013-04-16 10:33:00,
2013-04-16 06:42:00,55.0,47.0,29.91,SE,136,4.0,-999.0,73,-99.99,,,-99.99,,2013-04-16 10:42:00,
2013-04-16 06:53:00,55.0,47.0,29.91,SSW,195,3.0,-999.0,73,-99.99,,,-99.99,,2013-04-16 10:53:00,
2013-04-16 07:03:00,55.0,47.0,29.92,SE,144,2.0,-999.0,74,-99.99,,,-99.99,,2013-04-16 11:03:00,
2013-04-16 07:12:00,55.0,47.0,29.92,SE,144,2.0,-999.0,74,-99.99,,,-99.99,,2013-04-16 11:12:00,
2013-04-16 07:22:00,56.0,48.0,29.92,SSW,196,4.0,-999.0,74,-99.99,,,-99.99,,2013-04-16 11:22:00,
2013-04-16 07:32:00,56.0,47.0,29.92,South,174,5.0,-999.0,73,-99.99,,,-99.99,,2013-04-16 11:32:00,
2013-04-16 07:42:00,56.0,47.0,29.92,South,174,5.0,-999.0,73,-99.99,,,-99.99,,2013-04-16 11:42:00,
2013-04-16 07:53:00,56.0,47.0,29.92,SSW,200,5.0,-999.0,73,-99.99,,,-99.99,,2013-04-16 11:53:00,
2013-04-16 08:02:00,57.0,48.0,29.92,South,172,6.0,-999.0,72,-99.99,,,-99.99,,2013-04-16 12:02:00,
2013-04-16 08:12:00,57.0,48.0,29.92,South,172,6.0,-999.0,72,-99.99,,,-99.99,,2013-04-16 12:12:00,
2013-04-16 08:22:00,57.0,48.0,29.93,South,176,5.0,-999.0,71,-99.99,,,-99.99,,2013-04-16 12:22:00,
2013-04-16 08:32:00,58.0,49.0,29.93,SE,144,5.0,-999.0,71,-99.99,,,-99.99,,2013-04-16 12:32:00,
2013-04-16 08:42:00,58.0,49.0,29.93,SE,144,5.0,-999.0,71,-99.99,,,-99.99,,2013-04-16 12:42:00,
2013-04-16 08:52:00,58.0,49.0,29.93,SSW,205,5.0,-999.0,72,-99.99,,,-99.99,,2013-04-16 12:52:00,
2013-04-16 09:02:00,58.0,49.0,29.94,South,179,5.0,-999.0,71,-99.99,,,-99.99,,2013-04-16 13:02:00,
2013-04-16 09:12:00,58.0,49.0,29.94,South,179,5.0,-999.0,71,-99.99,,,-99.99,,2013-04-16 13:12:00,
2013-04-16 09:22:00,58.0,49.0,29.93,SE,141,4.0,-999.0,72,-99.99,,,-99.99,,2013-04-16 13:22:00,
2013-04-16 09:32:00,59.0,50.0,29.93,SW,226,6.0,-999.0,71,-99.99,,,-99.99,,2013-04-16 13:32:00,
2013-04-16 09:42:00,59.0,50.0,29.93,SW,226,6.0,-999.0,71,-99.99,,,-99.99,,2013-04-16 13:42:00,
2013-04-16 09:52:00,59.0,50.0,29.93,SSW,209,8.0,-999.0,71,-99.99,,,-99.99,,2013-04-16 13:52:00,
2013-04-16 10:02:00,59.0,50.0,29.95,SW,233,4.0,-999.0,71,-99.99,,,-99.99,,2013-04-16 14:02:00,
2013-04-16 10:12:00,59.0,50.0,29.95,SW,233,4.0,-999.0,71,-99.99,,,-99.99,,2013-04-16 14:12:00,
2013-04-16 10:22:00,59.0,50.0,29.96,SW,224,5.0,-999.0,72,-99.99,,,-99.99,,2013-04-16 14:22:00,
2013-04-16 10:32:00,59.0,50.0,29.96,SW,230,6.0,-999.0,73,-99.99,,,-99.99,,2013-04-16 14:32:00,
2013-04-16 10:42:00,59.0,50.0,29.96,SW,230,6.0,-999.0,73,-99.99,,,-99.99,,2013-04-16 14:42:00,
2013-04-16 10:52:00,59.0,50.0,29.96,SW,223,6.0,-999.0,73,-99.99,,,-99.99,,2013-04-16 14:52:00,
2013-04-16 11:02:00,60.0,51.0,29.95,SW,219,6.0,-999.0,72,-99.99,,,-99.99,,2013-04-16 15:02:00,
2013-04-16 11:12:00,60.0,51.0,29.95,SW,219,6.0,-999.0,72,-99.99,,,-99.99,,2013-04-16 15:12:00,
2013-04-16 11:22:00,61.0,51.0,29.96,SW,229,7.0,-999.0,70,-99.99,,,-99.99,,2013-04-16 15:22:00,
2013-04-16 11:33:00,60.0,52.0,29.95,SW,215,6.0,-999.0,74,-99.99,,,-99.99,,2013-04-16 15:33:00,
2013-04-16 11:43:00,60.0,52.0,29.95,SW,215,6.0,-999.0,74,-99.99,,,-99.99,,2013-04-16 15:43:00,
2013-04-16 11:53:00,59.0,53.0,29.96,SSW,210,4.0,-999.0,81,-99.99,,,-99.99,,2013-04-16 15:53:00,
2013-04-16 12:03:00,58.0,54.0,29.94,South,175,3.0,-999.0,85,-99.99,,,-99.99,,2013-04-16 16:03:00,
2013-04-16 12:13:00,58.0,54.0,29.94,South,175,3.0,-999.0,85,-99.99,,,-99.99,,2013-04-16 16:13:00,
2013-04-16 12:23:00,58.0,54.0,29.95,South,169,4.0,-999.0,86,-99.99,,,-99.99,,2013-04-16 16:23:00,
2013-04-16 12:32:00,59.0,55.0,29.94,South,174,6.0,-999.0,86,-99.99,,,-99.99,,2013-04-16 16:32:00,
2013-04-16 12:42:00,59.0,55.0,29.94,South,174,6.0,-999.0,86,-99.99,,,-99.99,,2013-04-16 16:42:00,
2013-04-16 12:53:00,60.0,55.0,29.94,SSW,200,6.0,-999.0,85,-99.99,,,-99.99,,2013-04-16 16:53:00,
2013-04-16 13:02:00,60.0,55.0,29.96,SW,217,7.0,-999.0,83,-99.99,,,-99.99,,2013-04-16 17:02:00,
2013-04-16 13:12:00,60.0,55.0,29.96,SW,217,7.0,-999.0,83,-99.99,,,-99.99,,2013-04-16 17:12:00,
2013-04-16 13:22:00,61.0,55.0,29.95,SW,224,5.0,-999.0,82,-99.99,,,-99.99,,2013-04-16 17:22:00,
2013-04-16 13:32:00,62.0,55.0,29.93,South,189,6.0,-999.0,79,-99.99,,,-99.99,,2013-04-16 17:32:00,
2013-04-16 13:43:00,62.0,55.0,29.93,South,189,6.0,-999.0,79,-99.99,,,-99.99,,2013-04-16 17:43:00,
2013-04-16 13:53:00,63.0,56.0,29.92,SW,216,6.0,-999.0,78,-99.99,,,-99.99,,2013-04-16 17:53:00,
2013-04-16 14:02:00,64.0,57.0,29.91,SE,144,4.0,-999.0,77,-99.99,,,-99.99,,2013-04-16 18:02:00,
2013-04-16 14:12:00,64.0,57.0,29.91,SE,144,4.0,-999.0,77,-99.99,,,-99.99,,2013-04-16 18:12:00,
2013-04-16 14:22:00,65.0,57.0,29.91,SSW,192,3.0,-999.0,76,-99.99,,,-99.99,,2013-04-16 18:22:00,
2013-04-16 14:32:00,65.0,56.0,29.91,SSW,203,7.0,-999.0,74,-99.99,,,-99.99,,2013-04-16 18:32:00,
2013-04-16 14:42:00,65.0,56.0,29.91,SSW,203,7.0,-999.0,74,-99.99,,,-99.99,,2013-04-16 18:42:00,
2013-04-16 14:52:00,65.0,56.0,29.92,SSW,200,5.0,-999.0,74,-99.99,,,-99.99,,2013-04-16 18:52:00,
2013-04-16 15:02:00,65.0,56.0,29.93,SW,222,3.0,-999.0,73,-99.99,,,-99.99,,2013-04-16 19:02:00,
2013-04-16 15:12:00,65.0,56.0,29.93,SW,222,3.0,-999.0,73,-99.99,,,-99.99,,2013-04-16 19:12:00,
2013-04-16 15:22:00,65.0,56.0,29.93,SW,220,4.0,-999.0,74,-99.99,,,-99.99,,2013-04-16 19:22:00,
2013-04-16 15:32:00,66.0,56.0,29.92,WSW,240,6.0,-999.0,71,-99.99,,,-99.99,,2013-04-16 19:32:00,
2013-04-16 15:42:00,66.0,56.0,29.92,WSW,240,6.0,-999.0,71,-99.99,,,-99.99,,2013-04-16 19:42:00,
2013-04-16 15:52:00,67.0,56.0,29.91,South,174,4.0,-999.0,69,-99.99,,,-99.99,,2013-04-16 19:52:00,
2013-04-16 16:02:00,68.0,57.0,29.91,SSW,213,6.0,-999.0,68,-99.99,,,-99.99,,2013-04-16 20:02:00,
2013-04-16 16:12:00,68.0,57.0,29.91,SSW,213,6.0,-999.0,68,-99.99,,,-99.99,,2013-04-16 20:12:00,
2013-04-16 16:22:00,67.0,56.0,29.92,WSW,241,5.0,-999.0,68,-99.99,,,-99.99,,2013-04-16 20:22:00,
2013-04-16 16:32:00,66.0,56.0,29.92,NNW,332,5.0,-999.0,71,-99.99,,,-99.99,,2013-04-16 20:32:00,
2013-04-16 16:42:00,66.0,56.0,29.92,NNW,332,5.0,-999.0,71,-99.99,,,-99.99,,2013-04-16 20:42:00,
2013-04-16 16:52:00,61.0,54.0,29.94,NNW,333,6.0,-999.0,79,-99.99,,,-99.99,,2013-04-16 20:52:00,
2013-04-16 17:02:00,58.0,53.0,29.96,NNW,330,6.0,-999.0,83,-99.99,,,-99.99,,2013-04-16 21:02:00,
2013-04-16 17:12:00,58.0,53.0,29.96,NNW,330,6.0,-999.0,83,-99.99,,,-99.99,,2013-04-16 21:12:00,
2013-04-16 17:22:00,56.0,52.0,29.98,NW,325,7.0,-999.0,85,-99.99,,,-99.99,,2013-04-16 21:22:00,
2013-04-16 17:32:00,55.0,51.0,29.99,NW,305,6.0,-999.0,86,-99.99,,,-99.99,,2013-04-16 21:32:00,
2013-04-16 17:43:00,55.0,51.0,29.99,NW,305,6.0,-999.0,86,-99.99,,,-99.99,,2013-04-16 21:43:00,
2013-04-16 17:53:00,54.0,50.0,30.01,North,0,4.0,-999.0,87,-99.99,,,-99.99,,2013-04-16 21:53:00,
2013-04-16 18:03:00,53.0,50.0,30.01,NNW,332,6.0,-999.0,88,-99.99,,,-99.99,,2013-04-16 22:03:00,
2013-04-16 18:13:00,53.0,50.0,30.01,NNW,332,6.0,-999.0,88,-99.99,,,-99.99,,2013-04-16 22:13:00,
2013-04-16 18:22:00,52.0,49.0,30.03,NW,323,4.0,-999.0,89,-99.99,,,-99.99,,2013-04-16 22:22:00,
2013-04-16 18:33:00,52.0,49.0,30.03,NW,323,4.0,-999.0,89,-99.99,,,-99.99,,2013-04-16 22:33:00,
2013-04-16 18:43:00,52.0,49.0,30.03,NW,323,4.0,-999.0,89,-99.99,,,-99.99,,2013-04-16 22:43:00,
2013-04-16 18:52:00,51.0,48.0,30.03,NW,326,4.0,-999.0,89,-99.99,,,-99.99,,2013-04-16 22:52:00,
2013-04-16 19:02:00,51.0,48.0,30.04,NW,318,2.0,-999.0,88,-99.99,,,-99.99,,2013-04-16 23:02:00,
2013-04-16 19:12:00,51.0,48.0,30.04,NW,318,2.0,-999.0,88,-99.99,,,-99.99,,2013-04-16 23:12:00,
2013-04-16 19:22:00,50.0,47.0,30.05,NW,323,3.0,-999.0,89,-99.99,,,-99.99,,2013-04-16 23:22:00,
2013-04-16 19:32:00,50.0,47.0,30.06,WNW,284,2.0,-999.0,89,-99.99,,,-99.99,,2013-04-16 23:32:00,
2013-04-16 19:43:00,50.0,47.0,30.06,WNW,284,2.0,-999.0,89,-99.99,,,-99.99,,2013-04-16 23:43:00,
2013-04-16 19:52:00,50.0,47.0,30.05,WNW,284,0.0,-999.0,89,-99.99,,,-99.99,,2013-04-16 23:52:00,
2013-04-16 20:02:00,50.0,47.0,30.05,WNW,284,0.0,-999.0,89,-99.99,,,-99.99,,2013-04-17 00:02:00,
2013-04-16 20:12:00,50.0,47.0,30.05,WNW,284,0.0,-999.0,89,-99.99,,,-99.99,,2013-04-17 00:12:00,
2013-04-16 20:22:00,50.0,47.0,30.04,WNW,284,0.0,-999.0,89,-99.99,,,-99.99,,2013-04-17 00:22:00,
2013-04-16 20:32:00,50.0,47.0,30.05,WNW,284,0.0,-999.0,89,-99.99,,,-99.99,,2013-04-17 00:32:00,
2013-04-16 20:42:00,50.0,47.0,30.05,WNW,284,0.0,-999.0,89,-99.99,,,-99.99,,2013-04-17 00:42:00,
2013-04-16 20:52:00,50.0,47.0,30.06,WNW,284,0.0,-999.0,89,-99.99,,,-99.99,,2013-04-17 00:52:00,
2013-04-16 21:02:00,50.0,47.0,30.07,WNW,284,0.0,-999.0,89,-99.99,,,-99.99,,2013-04-17 01:02:00,
2013-04-16 21:12:00,50.0,47.0,30.07,WNW,284,0.0,-999.0,89,-99.99,,,-99.99,,2013-04-17 01:12:00,
2013-04-16 21:22:00,49.0,46.0,30.08,WNW,284,0.0,-999.0,89,-99.99,,,-99.99,,2013-04-17 01:22:00,
2013-04-16 21:32:00,49.0,46.0,30.09,WNW,284,0.0,-999.0,89,-99.99,,,-99.99,,2013-04-17 01:32:00,
2013-04-16 21:42:00,49.0,46.0,30.09,WNW,284,0.0,-999.0,89,-99.99,,,-99.99,,2013-04-17 01:42:00,
2013-04-16 21:52:00,49.0,46.0,30.08,WNW,284,0.0,-999.0,89,-99.99,,,-99.99,,2013-04-17 01:52:00,
2013-04-16 22:02:00,49.0,46.0,30.09,WNW,284,0.0,-999.0,89,-99.99,,,-99.99,,2013-04-17 02:02:00,
2013-04-16 22:12:00,49.0,46.0,30.09,WNW,284,0.0,-999.0,89,-99.99,,,-99.99,,2013-04-17 02:12:00,
2013-04-16 22:22:00,49.0,46.0,30.09,WNW,284,0.0,-999.0,89,-99.99,,,-99.99,,2013-04-17 02:22:00,
2013-04-16 22:32:00,49.0,46.0,30.09,North,11,0.0,-999.0,89,-99.99,,,-99.99,,2013-04-17 02:32:00,
2013-04-16 22:42:00,49.0,46.0,30.09,North,11,0.0,-999.0,89,-99.99,,,-99.99,,2013-04-17 02:42:00,
2013-04-16 22:52:00,49.0,46.0,30.10,NNE,27,0.0,-999.0,89,-99.99,,,-99.99,,2013-04-17 02:52:00,
2013-04-16 23:02:00,49.0,46.0,30.09,NNE,27,0.0,-999.0,89,-99.99,,,-99.99,,2013-04-17 03:02:00,
2013-04-16 23:12:00,49.0,46.0,30.09,NNE,27,0.0,-999.0,89,-99.99,,,-99.99,,2013-04-17 03:12:00,
2013-04-16 23:22:00,49.0,46.0,30.09,NNE,27,0.0,-999.0,89,-99.99,,,-99.99,,2013-04-17 03:22:00,
2013-04-16 23:33:00,48.0,45.0,30.09,NNE,27,0.0,-999.0,89,-99.99,,,-99.99,,2013-04-17 03:33:00,
2013-04-16 23:42:00,48.0,45.0,30.09,NNE,27,0.0,-999.0,89,-99.99,,,-99.99,,2013-04-17 03:42:00,
2013-04-16 23:53:00,48.0,45.0,30.09,NNE,27,0.0,-999.0,90,-99.99,,,-99.99,,2013-04-17 03:53:00,